• în Republica Moldova
  • Lista ţărilor
  • Pe 7 zile
  • Temperatura apei
  • Hartă satelitară
  • Meteo pe hartă
  • Widget-uri
  • user-avatar
    Intrare

    Meteo pe oră la Malanje

    Astăzi, 23 Februarie, Vineri

    Timp Temperatura Precipitaţii Vânt Presiune Umiditate
    00:00 +20°C° 0,1 mm 1 m/s 663 mmHg 97%
    01:00 +20°C° 0,1 mm 1 m/s 663 mmHg 98%
    02:00 +20°C° 0,2 mm 1 m/s 663 mmHg 98%
    03:00 +20°C° 0,2 mm 1 m/s 663 mmHg 98%
    04:00 +20°C° 0,2 mm 1 m/s 663 mmHg 98%
    05:00 +20°C° 0 mm 1 m/s 663 mmHg 98%
    06:00 +20°C° 0 mm 1 m/s 663 mmHg 97%
    07:00 +21°C° 0 mm 1 m/s 664 mmHg 95%
    08:00 +22°C° 0,3 mm 1 m/s 664 mmHg 89%
    09:00 +24°C° 0,3 mm 1 m/s 664 mmHg 82%
    10:00 +26°C° 0,3 mm 1 m/s 664 mmHg 75%
    11:00 +27°C° 1,3 mm 1 m/s 664 mmHg 73%
    12:00 +27°C° 1,3 mm 2 m/s 664 mmHg 71%
    13:00 +28°C° 1,3 mm 2 m/s 663 mmHg 70%
    14:00 +27°C° 1,2 mm 2 m/s 663 mmHg 75%
    15:00 +27°C° 1,2 mm 2 m/s 662 mmHg 80%
    16:00 +26°C° 1,2 mm 2 m/s 662 mmHg 85%
    17:00 +24°C° 0,8 mm 2 m/s 662 mmHg 88%
    18:00 +23°C° 0,8 mm 2 m/s 662 mmHg 91%
    19:00 +20°C° 0,8 mm 2 m/s 662 mmHg 94%
    20:00 +20°C° 0,5 mm 2 m/s 663 mmHg 95%
    21:00 +20°C° 0,5 mm 2 m/s 664 mmHg 96%
    22:00 +19°C° 0,5 mm 2 m/s 664 mmHg 97%
    23:00 +19°C° 1 mm 2 m/s 664 mmHg 97%

    Mâine, 24 Februarie, Sâmbătă

    Timp Temperatura Precipitaţii Vânt Presiune Umiditate
    00:00 +19°C° 1 mm 2 m/s 664 mmHg 97%
    01:00 +19°C° 1 mm 2 m/s 664 mmHg 98%
    02:00 +19°C° 0,5 mm 2 m/s 664 mmHg 98%
    03:00 +19°C° 0,5 mm 2 m/s 664 mmHg 98%
    04:00 +19°C° 0,5 mm 2 m/s 664 mmHg 98%
    05:00 +19°C° 0,5 mm 2 m/s 664 mmHg 98%
    06:00 +19°C° 0,5 mm 2 m/s 664 mmHg 98%
    07:00 +19°C° 0,5 mm 2 m/s 664 mmHg 98%
    08:00 +20°C° 0,4 mm 2 m/s 665 mmHg 96%
    09:00 +20°C° 0,4 mm 2 m/s 665 mmHg 93%
    10:00 +21°C° 0,4 mm 3 m/s 665 mmHg 91%
    11:00 +22°C° 0,2 mm 3 m/s 665 mmHg 85%
    12:00 +24°C° 0,2 mm 3 m/s 665 mmHg 78%
    13:00 +26°C° 0,2 mm 3 m/s 665 mmHg 72%
    14:00 +26°C° 0,3 mm 3 m/s 664 mmHg 72%
    15:00 +26°C° 0,3 mm 3 m/s 664 mmHg 73%
    16:00 +26°C° 0,3 mm 3 m/s 663 mmHg 73%
    17:00 +24°C° 0,2 mm 2 m/s 663 mmHg 79%
    18:00 +23°C° 0,2 mm 2 m/s 663 mmHg 84%
    19:00 +21°C° 0,2 mm 1 m/s 663 mmHg 90%
    20:00 +20°C° 0 mm 2 m/s 664 mmHg 91%
    21:00 +19°C° 0 mm 2 m/s 664 mmHg 91%
    22:00 +19°C° 0 mm 2 m/s 665 mmHg 92%
    23:00 +18°C° 0 mm 2 m/s 665 mmHg 92%

    Poimâine, 25 Februarie, Duminică

    Timp Temperatura Precipitaţii Vânt Presiune Umiditate
    00:00 +19°C° 0 mm 1 m/s 665 mmHg 93%
    01:00 +19°C° 0 mm 1 m/s 664 mmHg 93%
    02:00 +19°C° 0 mm 1 m/s 664 mmHg 93%
    03:00 +19°C° 0 mm 1 m/s 664 mmHg 93%
    04:00 +18°C° 0 mm 1 m/s 664 mmHg 93%
    05:00 +19°C° 0 mm 1 m/s 664 mmHg 92%
    06:00 +19°C° 0 mm 1 m/s 665 mmHg 92%
    07:00 +19°C° 0 mm 1 m/s 665 mmHg 92%
    08:00 +19°C° 0 mm 2 m/s 666 mmHg 87%
    09:00 +21°C° 0 mm 2 m/s 667 mmHg 83%
    10:00 +23°C° 0 mm 2 m/s 667 mmHg 78%
    11:00 +24°C° 0,1 mm 3 m/s 667 mmHg 75%
    12:00 +25°C° 0,1 mm 3 m/s 666 mmHg 71%
    13:00 +25°C° 0,1 mm 3 m/s 666 mmHg 68%
    14:00 +25°C° 0,2 mm 3 m/s 665 mmHg 72%
    15:00 +24°C° 0,2 mm 3 m/s 665 mmHg 76%
    16:00 +24°C° 0,2 mm 3 m/s 664 mmHg 81%
    17:00 +22°C° 0,2 mm 3 m/s 664 mmHg 85%
    18:00 +21°C° 0,2 mm 2 m/s 664 mmHg 89%
    19:00 +19°C° 0,2 mm 2 m/s 665 mmHg 93%
    20:00 +19°C° 0 mm 2 m/s 665 mmHg 94%
    21:00 +19°C° 0 mm 2 m/s 665 mmHg 95%
    22:00 +19°C° 0 mm 2 m/s 666 mmHg 95%
    23:00 +19°C° 0 mm 1 m/s 665 mmHg 95%

    26 Februarie, Luni

    Timp Temperatura Precipitaţii Vânt Presiune Umiditate
    00:00 +19°C° 0 mm 1 m/s 665 mmHg 95%
    01:00 +19°C° 0 mm 1 m/s 665 mmHg 95%
    02:00 +19°C° 0 mm 1 m/s 664 mmHg 94%
    03:00 +19°C° 0 mm 1 m/s 664 mmHg 94%
    04:00 +19°C° 0 mm 1 m/s 664 mmHg 93%
    05:00 +19°C° 0 mm 1 m/s 664 mmHg 92%
    06:00 +19°C° 0 mm 1 m/s 664 mmHg 91%
    07:00 +19°C° 0 mm 1 m/s 665 mmHg 90%
    08:00 +21°C° 0 mm 1 m/s 665 mmHg 82%
    09:00 +24°C° 0 mm 1 m/s 666 mmHg 74%
    10:00 +26°C° 0 mm 1 m/s 667 mmHg 66%
    11:00 +28°C° 0 mm 1 m/s 666 mmHg 61%
    12:00 +29°C° 0 mm 1 m/s 666 mmHg 57%
    13:00 +31°C° 0 mm 1 m/s 665 mmHg 52%
    14:00 +30°C° 0 mm 1 m/s 665 mmHg 55%
    15:00 +29°C° 0 mm 1 m/s 664 mmHg 58%
    16:00 +29°C° 0 mm 1 m/s 664 mmHg 61%
    17:00 +26°C° 0,5 mm 1 m/s 664 mmHg 70%
    18:00 +24°C° 0,5 mm 1 m/s 664 mmHg 79%
    19:00 +22°C° 0,5 mm 1 m/s 664 mmHg 88%
    20:00 +21°C° 0,1 mm 1 m/s 664 mmHg 90%
    21:00 +21°C° 0,1 mm 1 m/s 664 mmHg 91%
    22:00 +20°C° 0,1 mm 1 m/s 665 mmHg 93%
    23:00 +20°C° 1 mm 1 m/s 665 mmHg 94%

    27 Februarie, Marţi

    Timp Temperatura Precipitaţii Vânt Presiune Umiditate
    00:00 +20°C° 1 mm 1 m/s 664 mmHg 95%
    01:00 +20°C° 1 mm 1 m/s 664 mmHg 96%
    02:00 +20°C° 0,1 mm 1 m/s 664 mmHg 96%
    03:00 +20°C° 0,1 mm 1 m/s 664 mmHg 97%
    04:00 +19°C° 0,1 mm 1 m/s 664 mmHg 97%
    05:00 +20°C° 0 mm 1 m/s 664 mmHg 97%
    06:00 +20°C° 0 mm 1 m/s 664 mmHg 96%
    07:00 +20°C° 0 mm 1 m/s 665 mmHg 96%
    08:00 +20°C° 0 mm 2 m/s 665 mmHg 91%
    09:00 +23°C° 0 mm 2 m/s 665 mmHg 86%
    10:00 +24°C° 0 mm 2 m/s 666 mmHg 82%
    11:00 +25°C° 0,2 mm 2 m/s 665 mmHg 77%
    12:00 +26°C° 0,2 mm 3 m/s 665 mmHg 72%
    13:00 +28°C° 0,2 mm 3 m/s 664 mmHg 68%
    14:00 +27°C° 0,8 mm 3 m/s 664 mmHg 68%
    15:00 +27°C° 0,8 mm 3 m/s 663 mmHg 69%
    16:00 +27°C° 0,8 mm 3 m/s 663 mmHg 70%
    17:00 +25°C° 0,9 mm 3 m/s 663 mmHg 78%
    18:00 +22°C° 0,9 mm 3 m/s 663 mmHg 86%
    19:00 +20°C° 0,9 mm 2 m/s 663 mmHg 94%
    20:00 +20°C° 0,4 mm 2 m/s 664 mmHg 95%
    21:00 +20°C° 0,4 mm 2 m/s 664 mmHg 96%
    22:00 +19°C° 0,4 mm 2 m/s 665 mmHg 97%
    23:00 +19°C° 0,2 mm 3 m/s 665 mmHg 97%

    28 Februarie, Miercuri

    Timp Temperatura Precipitaţii Vânt Presiune Umiditate
    00:00 +19°C° 0,2 mm 3 m/s 665 mmHg 96%
    01:00 +19°C° 0,2 mm 3 m/s 664 mmHg 96%
    02:00 +19°C° 0,3 mm 3 m/s 664 mmHg 95%
    03:00 +18°C° 0,3 mm 3 m/s 664 mmHg 95%
    04:00 +18°C° 0,3 mm 3 m/s 664 mmHg 95%
    05:00 +18°C° 0 mm 3 m/s 664 mmHg 94%
    06:00 +18°C° 0 mm 2 m/s 665 mmHg 94%
    07:00 +18°C° 0 mm 2 m/s 665 mmHg 94%
    08:00 +20°C° 0 mm 2 m/s 665 mmHg 86%
    09:00 +21°C° 0 mm 2 m/s 666 mmHg 79%
    10:00 +24°C° 0 mm 2 m/s 666 mmHg 71%
    11:00 +25°C° 0 mm 2 m/s 666 mmHg 67%
    12:00 +27°C° 0 mm 3 m/s 665 mmHg 63%
    13:00 +28°C° 0 mm 3 m/s 665 mmHg 59%
    14:00 +27°C° 0,2 mm 3 m/s 664 mmHg 63%
    15:00 +27°C° 0,2 mm 3 m/s 664 mmHg 66%
    16:00 +27°C° 0,2 mm 3 m/s 664 mmHg 70%
    17:00 +25°C° 0,2 mm 3 m/s 664 mmHg 75%
    18:00 +23°C° 0,2 mm 2 m/s 664 mmHg 80%
    19:00 +20°C° 0,2 mm 2 m/s 664 mmHg 85%
    20:00 +20°C° 0,2 mm 2 m/s 664 mmHg 87%
    21:00 +19°C° 0,2 mm 2 m/s 664 mmHg 89%
    22:00 +19°C° 0,2 mm 2 m/s 665 mmHg 91%
    23:00 +19°C° 0 mm 2 m/s 664 mmHg 92%
    Arată mai mult